Location: Quedlinburg
(51.7921°N, 11.1414°E)
Time: 19:42:33
(UTC+02:00)

CUBESAT XI-V - Pass Details

Date: 22 March 2026
Orbit: 643 x 664 km, 98.3° (Epoch: 14 April)

Event Time Altitude Azimuth Distance (km) Brightness Sun altitude
Exits shadow 04:55:13 11° 293° (WNW) 1,998 ? -12.8°
Drops below altitude 10° 04:55:40 10° 299° (WNW) 2,062 ? -12.7°
Sets 04:59:14 0° 329° (NNW) 2,975 ? -12.2°
